| time (UTC) | temp F | wind direction | speed knots | gust knots | rain 1hr in | rain 24hr in | rain mn in | humidity % | barometer mb |
| 20260504081512 | 45 | 248 | 0.9 | 5.2 | 0.00 | 0.00 | 0.00 | 55 | 1017.9 |
| 20260504044545 | 48 | 313 | 0.0 | 4.3 | 0.00 | 0.00 | 0.00 | 33 | 1019.1 |
| 20260504043053 | 48 | 248 | 1.7 | 5.2 | 0.00 | 0.00 | 0.00 | 31 | 1019.1 |
| 20260504041545 | 48 | 244 | 0.9 | 5.2 | 0.00 | 0.00 | 0.00 | 31 | 1019.1 |
| 20260504040044 | 48 | 248 | 2.6 | 7.0 | 0.00 | 0.00 | 0.00 | 30 | 1019.2 |
| 20260504034547 | 49 | 249 | 2.6 | 10.4 | 0.00 | 0.00 | 0.00 | 28 | 1019.2 |
| 20260504033040 | 48 | 268 | 2.6 | 6.1 | 0.00 | 0.00 | 0.00 | 28 | 1019.2 |
| 20260504031542 | 48 | 248 | 1.7 | 8.7 | 0.00 | 0.00 | 0.00 | 31 | 1019.2 |
| 20260504030038 | 48 | 237 | 2.6 | 6.1 | 0.00 | 0.00 | 0.00 | 29 | 1019.3 |
| 20260504024542 | 47 | 252 | 2.6 | 8.7 | 0.00 | 0.00 | 0.00 | 30 | 1019.6 |
| 20260504023037 | 48 | 327 | 0.9 | 7.0 | 0.00 | 0.00 | 0.00 | 33 | 1019.5 |
| 20260504021539 | 48 | 260 | 3.5 | 10.4 | 0.00 | 0.00 | 0.00 | 28 | 1019.4 |
| 20260504020041 | 48 | 286 | 3.5 | 8.7 | 0.00 | 0.00 | 0.00 | 28 | 1019.2 |
| 20260504014538 | 48 | 257 | 1.7 | 10.4 | 0.00 | 0.00 | 0.00 | 31 | 1019.0 |
| 20260504013047 | 48 | 242 | 2.6 | 7.0 | 0.00 | 0.00 | 0.00 | 31 | 1018.9 |
| 20260504011534 | 48 | 273 | 2.6 | 7.8 | 0.00 | 0.00 | 0.00 | 30 | 1018.8 |
| 20260504010037 | 48 | 261 | 3.5 | 7.8 | 0.00 | 0.00 | 0.00 | 28 | 1018.8 |
| 20260504004533 | 49 | 240 | 3.5 | 7.0 | 0.00 | 0.00 | 0.00 | 28 | 1018.8 |
| 20260504003032 | 49 | 254 | 2.6 | 8.7 | 0.00 | 0.00 | 0.00 | 28 | 1018.7 |
| 20260504001537 | 50 | 225 | 1.7 | 5.2 | 0.00 | 0.00 | 0.00 | 27 | 1018.7 |
| 20260504000031 | 51 | 245 | 2.6 | 10.4 | 0.00 | 0.00 | 0.00 | 25 | 1018.6 |
| 20260503234531 | 52 | 193 | 3.5 | 8.7 | 0.00 | 0.00 | 0.00 | 24 | 1018.5 |
| 20260503233031 | 52 | 232 | 2.6 | 7.8 | 0.00 | 0.00 | 0.00 | 23 | 1018.4 |
| 20260503231531 | 53 | 247 | 2.6 | 10.4 | 0.00 | 0.00 | 0.00 | 22 | 1018.3 |
| 20260503230039 | 54 | 230 | 4.3 | 7.8 | 0.00 | 0.00 | 0.00 | 21 | 1018.4 |
| 20260503224528 | 54 | 239 | 3.5 | 8.7 | 0.00 | 0.00 | 0.00 | 26 | 1018.5 |
| 20260503223027 | 54 | 53 | 1.7 | 9.6 | 0.00 | 0.00 | 0.00 | 25 | 1018.8 |
| 20260503221530 | 55 | 303 | 4.3 | 9.6 | 0.00 | 0.00 | 0.00 | 25 | 1018.7 |
| 20260503220025 | 55 | 288 | 1.7 | 9.6 | 0.00 | 0.00 | 0.00 | 26 | 1018.6 |
| 20260503214536 | 55 | 244 | 3.5 | 8.7 | 0.00 | 0.00 | 0.00 | 25 | 1018.9 |
| 20260503213025 | 56 | 265 | 4.3 | 10.4 | 0.00 | 0.00 | 0.00 | 23 | 1019.1 |
| 20260503211524 | 56 | 255 | 4.3 | 10.4 | 0.00 | 0.00 | 0.00 | 24 | 1019.1 |
| 20260503210023 | 56 | 232 | 4.3 | 10.4 | 0.00 | 0.00 | 0.00 | 23 | 1019.1 |
| 20260503204523 | 55 | 300 | 5.2 | 12.2 | 0.00 | 0.00 | 0.00 | 22 | 1019.2 |
| 20260503203032 | 56 | 267 | 4.3 | 11.3 | 0.00 | 0.00 | 0.00 | 25 | 1019.1 |
| 20260503201522 | 55 | 284 | 2.6 | 9.6 | 0.00 | 0.00 | 0.00 | 25 | 1019.6 |
| 20260503200023 | 56 | 226 | 4.3 | 9.6 | 0.00 | 0.00 | 0.00 | 22 | 1019.5 |
| 20260503194520 | 55 | 226 | 5.2 | 15.6 | 0.00 | 0.00 | 0.00 | 26 | 1019.7 |
| 20260503193034 | 55 | 355 | 2.6 | 11.3 | 0.00 | 0.00 | 0.00 | 30 | 1019.7 |
| 20260503191533 | 54 | 239 | 3.5 | 13.0 | 0.00 | 0.00 | 0.00 | 23 | 1019.9 |
| 20260503190025 | 54 | 224 | 3.5 | 10.4 | 0.00 | 0.00 | 0.00 | 26 | 1020.2 |
| 20260503184512 | 53 | 328 | 1.7 | 16.5 | 0.00 | 0.00 | 0.00 | 26 | 1020.3 |
| 20260503183010 | 53 | 241 | 3.5 | 10.4 | 0.00 | 0.00 | 0.00 | 29 | 1020.4 |
| 20260503181508 | 52 | 251 | 6.1 | 10.4 | 0.00 | 0.00 | 0.00 | 26 | 1020.7 |
| 20260503180006 | 52 | 252 | 4.3 | 8.7 | 0.00 | 0.00 | 0.00 | 28 | 1020.8 |
| 20260503174505 | 51 | 329 | 4.3 | 9.6 | 0.00 | 0.00 | 0.00 | 27 | 1020.9 |
| 20260503173005 | 51 | 80 | 4.3 | 8.7 | 0.00 | 0.00 | 0.00 | 28 | 1021.1 |
| 20260503171501 | 50 | 157 | 5.2 | 8.7 | 0.00 | 0.00 | 0.00 | 29 | 1021.1 |